CDT,Max TemperatureF,Mean TemperatureF,Min TemperatureF,Max Dew PointF,MeanDew PointF,Min DewpointF,Max Humidity, Mean Humidity, Min Humidity, Max Sea Level PressureIn, Mean Sea Level PressureIn, Min Sea Level PressureIn, Max VisibilityMiles, Mean VisibilityMiles, Min VisibilityMiles, Max Wind SpeedMPH, Mean Wind SpeedMPH, Max Gust SpeedMPH,PrecipitationIn, CloudCover, Events, WindDirDegrees
2013-7-1,81,68,55,56,52,49,86,57,32,30.19,30.15,30.11,10,10,7,13,6,18,0.00,1,,11
2013-7-2,81,70,60,62,54,49,84,59,34,30.18,30.13,30.06,10,10,3,8,2,,0.00,0,Thunderstorm,347
2013-7-3,83,71,59,60,56,49,96,61,34,30.09,30.04,29.98,10,10,7,15,5,17,0.00,1,,245
2013-7-4,86,72,57,59,55,53,87,60,33,30.03,29.98,29.93,10,10,10,16,8,22,0.00,0,,177
2013-7-5,86,75,65,68,61,56,75,60,43,29.96,29.92,29.86,10,10,10,16,10,20,0.00,0,,170
2013-7-6,88,78,68,67,63,60,79,64,46,29.92,29.88,29.84,10,10,10,22,12,25,0.00,0,,172
2013-7-7,92,82,71,68,65,60,77,57,40,29.93,29.89,29.84,10,10,10,20,12,25,0.09,2,Rain,194
2013-7-8,86,82,77,76,69,64,83,66,53,30.00,29.96,29.93,10,10,10,18,9,28,0.00,2,Rain,195
2013-7-9,93,84,75,78,73,67,93,73,54,29.98,29.92,29.89,10,10,7,14,7,18,0.13,2,Rain-Thunderstorm,180
2013-7-10,83,77,71,75,67,63,85,70,51,30.11,30.05,29.95,10,10,10,12,6,16,0.00,1,Thunderstorm,32
2013-7-11,84,73,62,65,61,58,94,63,43,30.13,30.06,29.99,10,10,10,13,5,17,0.00,0,,140
2013-7-12,88,76,65,69,64,60,83,64,52,30.03,30.00,29.95,10,10,10,20,9,24,0.00,0,,154
2013-7-13,85,76,69,73,66,58,80,67,54,30.01,29.99,29.95,10,10,7,22,12,28,0.05,3,Rain-Thunderstorm,156
2013-7-14,85,76,68,66,62,59,80,62,42,30.16,30.07,30.01,10,10,10,15,9,21,0.00,1,,139
2013-7-15,86,76,65,70,66,60,83,68,49,30.22,30.17,30.13,10,10,10,10,4,10,0.00,1,,139
2013-7-16,88,78,68,71,67,62,95,69,47,30.28,30.24,30.19,10,10,7,8,4,,0.03,0,,175
2013-7-17,90,80,69,73,70,67,98,71,48,30.32,30.27,30.19,10,10,7,12,4,10,0.00,1,Rain,176
2013-7-18,93,81,70,71,68,64,95,65,40,30.20,30.10,29.97,10,10,10,18,8,23,0.00,1,,203
2013-7-19,93,82,72,72,67,62,77,60,44,29.98,29.94,29.88,10,10,10,13,7,18,0.00,0,,257
2013-7-20,83,75,67,70,66,61,87,70,58,30.01,29.94,29.88,10,10,7,9,5,,0.00,1,Thunderstorm,101
2013-7-21,88,77,67,72,69,67,100,78,54,29.94,29.86,29.80,10,10,7,10,3,,0.00,3,Thunderstorm,189
2013-7-22,93,81,70,75,72,69,99,76,52,29.85,29.81,29.75,10,10,10,12,6,16,0.00,0,,205
2013-7-23,78,71,64,70,66,62,99,82,63,30.00,29.93,29.84,10,10,3,23,7,37,0.33,1,Rain-Thunderstorm,58
2013-7-24,81,70,59,65,62,60,100,76,50,30.09,30.05,30.00,10,10,10,9,3,,0.00,0,,37
2013-7-25,80,73,66,68,64,61,98,78,60,30.08,30.05,30.01,10,10,10,15,6,22,0.00,6,Rain,187
2013-7-26,78,68,58,69,60,52,100,73,40,30.12,30.06,29.99,10,9,0,15,6,23,0.00,1,Fog,334
2013-7-27,73,64,55,55,50,44,95,63,37,30.15,30.09,30.02,10,10,10,12,5,20,0.00,1,,342
2013-7-28,76,64,51,55,50,46,86,60,37,30.09,30.06,30.02,10,10,10,7,2,,0.00,0,,66
2013-7-29,65,62,60,66,62,53,100,94,66,30.09,30.05,30.01,10,8,2,14,5,17,0.46,7,Rain,135
2013-7-30,75,70,65,70,67,65,100,93,81,30.12,30.06,30.01,10,5,0,10,4,,0.15,8,Fog-Rain,33
2013-7-31,81,72,62,71,66,63,100,81,55,30.16,30.11,30.07,10,8,2,7,2,,0.00,2,,320